| time (UTC) | temp C | wind direction | speed KPH | gust KPH | rain 1hr cm | rain 24hr cm | rain mn cm | humidity % | barometer mb |
| 20260505111531 | 20 | 226 | 0.0 | 0.0 | 0.00 | 0.03 | 0.00 | 92 | 1016.4 |
| 20260505101525 | 20 | 220 | 0.0 | 0.0 | 0.00 | 0.05 | 0.00 | 91 | 1016.3 |
| 20260505100025 | 20 | 220 | 0.0 | 0.0 | 0.00 | 0.05 | 0.00 | 91 | 1016.2 |
| 20260505094522 | 21 | 220 | 0.0 | 0.0 | 0.00 | 0.05 | 0.00 | 91 | 1016.2 |
| 20260505093022 | 21 | 213 | 0.0 | 0.0 | 0.00 | 0.05 | 0.00 | 91 | 1015.8 |
| 20260505091527 | 21 | 209 | 0.0 | 0.0 | 0.00 | 0.05 | 0.00 | 90 | 1015.7 |
| 20260505090036 | 21 | 209 | 0.0 | 0.0 | 0.00 | 0.05 | 0.00 | 89 | 1015.4 |
| 20260505084528 | 21 | 209 | 0.0 | 0.0 | 0.00 | 0.05 | 0.00 | 88 | 1015.1 |
| 20260505083027 | 21 | 209 | 0.0 | 0.0 | 0.00 | 0.05 | 0.00 | 87 | 1014.8 |
| 20260505081528 | 21 | 124 | 0.0 | 0.0 | 0.00 | 0.05 | 0.00 | 87 | 1014.9 |
| 20260505080028 | 22 | 63 | 0.0 | 0.0 | 0.00 | 0.05 | 0.00 | 86 | 1015.0 |
| 20260505074520 | 22 | 63 | 0.0 | 0.0 | 0.00 | 0.05 | 0.00 | 85 | 1014.5 |
| 20260505073030 | 22 | 63 | 0.0 | 0.0 | 0.00 | 0.05 | 0.00 | 83 | 1014.3 |
| 20260505071520 | 22 | 63 | 0.0 | 0.0 | 0.00 | 0.05 | 0.00 | 81 | 1014.4 |
| 20260505070022 | 23 | 58 | 0.0 | 0.0 | 0.00 | 0.05 | 0.00 | 80 | 1014.0 |
| 20260505064536 | 23 | 351 | 0.0 | 0.0 | 0.00 | 0.05 | 0.00 | 80 | 1014.2 |
| 20260505063022 | 23 | 43 | 0.0 | 0.0 | 0.00 | 0.05 | 0.00 | 80 | 1013.9 |
| 20260505061530 | 23 | 35 | 0.0 | 0.0 | 0.00 | 0.05 | 0.00 | 79 | 1014.1 |
| 20260505060021 | 24 | 45 | 0.0 | 3.2 | 0.00 | 0.05 | 0.00 | 79 | 1013.9 |
| 20260505054523 | 24 | 346 | 0.0 | 0.0 | 0.00 | 0.05 | 0.00 | 77 | 1013.8 |
| 20260505053017 | 25 | 80 | 0.0 | 0.0 | 0.00 | 0.05 | 0.00 | 76 | 1013.7 |
| 20260505051520 | 25 | 48 | 0.0 | 0.0 | 0.00 | 0.05 | 0.00 | 74 | 1013.7 |
| 20260505041516 | 26 | 20 | 0.0 | 0.0 | 0.00 | 0.05 | 0.00 | 72 | 1013.4 |
| 20260505040015 | 25 | 325 | 0.0 | 0.0 | 0.00 | 0.05 | 0.00 | 72 | 1013.4 |
| 20260505034516 | 25 | 47 | 0.0 | 1.6 | 0.00 | 0.05 | 0.00 | 73 | 1013.2 |
| 20260505033018 | 25 | 313 | 0.0 | 4.8 | 0.00 | 0.05 | 0.00 | 72 | 1013.5 |
| 20260505031535 | 25 | 330 | 0.0 | 8.0 | 0.00 | 0.05 | 0.00 | 73 | 1013.4 |
| 20260505030013 | 26 | 18 | 0.0 | 6.4 | 0.00 | 0.05 | 0.00 | 71 | 1013.6 |
| 20260505024517 | 26 | 353 | 0.0 | 6.4 | 0.00 | 0.05 | 0.00 | 71 | 1013.7 |
| 20260505023010 | 26 | 26 | 0.0 | 4.8 | 0.00 | 0.05 | 0.00 | 70 | 1013.9 |
| 20260505021504 | 26 | 114 | 0.0 | 4.8 | 0.00 | 0.05 | 0.00 | 69 | 1014.3 |
| 20260505020003 | 26 | 12 | 0.0 | 3.2 | 0.00 | 0.05 | 0.00 | 70 | 1014.5 |
| 20260505014609 | 26 | 345 | 0.0 | 0.0 | 0.00 | 0.05 | 0.00 | 69 | 1014.6 |
| 20260505013109 | 26 | 68 | 0.0 | 4.8 | 0.00 | 0.05 | 0.00 | 69 | 1014.8 |
| 20260505011557 | 26 | 11 | 0.0 | 1.6 | 0.00 | 0.05 | 0.00 | 69 | 1015.3 |
| 20260505010059 | 26 | 329 | 0.0 | 0.0 | 0.00 | 0.05 | 0.00 | 68 | 1015.4 |
| 20260505004559 | 26 | 217 | 0.0 | 1.6 | 0.00 | 0.05 | 0.00 | 69 | 1015.5 |
| 20260505003055 | 26 | 106 | 0.0 | 0.0 | 0.00 | 0.05 | 0.00 | 71 | 1015.6 |
| 20260505001555 | 25 | 294 | 0.0 | 3.2 | 0.00 | 0.05 | 0.00 | 73 | 1015.8 |
| 20260505000106 | 25 | 351 | 0.0 | 0.0 | 0.00 | 0.05 | 0.00 | 74 | 1015.8 |
| 20260504234547 | 25 | 351 | 0.0 | 0.0 | 0.00 | 0.05 | 0.00 | 75 | 1015.8 |
| 20260504233045 | 24 | 349 | 0.0 | 0.0 | 0.00 | 0.05 | 0.00 | 78 | 1015.9 |
| 20260504231541 | 23 | 319 | 0.0 | 0.0 | 0.00 | 0.05 | 0.00 | 83 | 1016.0 |
| 20260504230046 | 22 | 210 | 0.0 | 0.0 | 0.00 | 0.05 | 0.00 | 90 | 1016.2 |
| 20260504224542 | 21 | 249 | 0.0 | 0.0 | 0.00 | 0.10 | 0.00 | 94 | 1016.2 |
| 20260504223037 | 20 | 264 | 0.0 | 1.6 | 0.00 | 0.10 | 0.00 | 96 | 1016.2 |
| 20260504221544 | 20 | 254 | 0.0 | 1.6 | 0.00 | 0.10 | 0.00 | 97 | 1016.1 |
| 20260504220032 | 19 | 242 | 0.0 | 1.6 | 0.00 | 0.10 | 0.00 | 97 | 1016.0 |
| 20260504214526 | 18 | 204 | 0.0 | 1.6 | 0.00 | 0.10 | 0.00 | 98 | 1016.1 |
| 20260504213024 | 18 | 249 | 0.0 | 1.6 | 0.00 | 0.10 | 0.00 | 98 | 1016.0 |
| 20260504211523 | 18 | 226 | 0.0 | 0.0 | 0.00 | 0.10 | 0.00 | 98 | 1015.8 |
| 20260504210023 | 17 | 278 | 0.0 | 0.0 | 0.00 | 0.10 | 0.00 | 97 | 1015.7 |
| 20260504204522 | 17 | 239 | 0.0 | 0.0 | 0.00 | 0.10 | 0.00 | 97 | 1015.5 |
| 20260504203027 | 17 | 232 | 0.0 | 0.0 | 0.00 | 0.10 | 0.00 | 97 | 1015.4 |
| 20260504201521 | 17 | 238 | 0.0 | 0.0 | 0.00 | 0.10 | 0.00 | 97 | 1015.3 |
| 20260504200020 | 17 | 233 | 0.0 | 0.0 | 0.00 | 0.10 | 0.00 | 97 | 1015.2 |
| 20260504194519 | 17 | 237 | 0.0 | 0.0 | 0.00 | 0.13 | 0.00 | 97 | 1015.1 |
| 20260504193019 | 17 | 232 | 0.0 | 0.0 | 0.00 | 0.13 | 0.00 | 97 | 1014.9 |
| 20260504191517 | 17 | 242 | 0.0 | 0.0 | 0.00 | 0.13 | 0.00 | 97 | 1014.8 |
| 20260504190016 | 17 | 242 | 0.0 | 0.0 | 0.00 | 0.13 | 0.00 | 97 | 1014.6 |
| 20260504184518 | 18 | 242 | 0.0 | 0.0 | 0.00 | 0.13 | 0.00 | 97 | 1014.6 |
| 20260504183014 | 18 | 242 | 0.0 | 0.0 | 0.00 | 0.13 | 0.00 | 97 | 1014.6 |
| 20260504181513 | 18 | 244 | 0.0 | 0.0 | 0.00 | 0.13 | 0.00 | 97 | 1014.5 |
| 20260504180012 | 18 | 237 | 0.0 | 0.0 | 0.00 | 0.13 | 0.00 | 97 | 1014.5 |
| 20260504174513 | 18 | 231 | 0.0 | 0.0 | 0.00 | 0.33 | 0.00 | 97 | 1014.6 |
| 20260504173012 | 18 | 231 | 0.0 | 0.0 | 0.00 | 0.33 | 0.00 | 97 | 1014.5 |
| 20260504171512 | 18 | 232 | 0.0 | 0.0 | 0.00 | 0.33 | 0.00 | 97 | 1014.5 |